Location: Shenandoah County Park
(38.9356°N, 78.4524°W)
Time: 19:32:35
(UTC-04:00)

Explorer 11/Cluster Stage 4 - Pass Details

Date: 28 February 2024
Orbit: 465 x 1219 km, 28.8° (Epoch: 22 April)

Event Time Altitude Azimuth Distance (km) Brightness Sun altitude
Rises 00:15:56 0° 238° (WSW) 4,055 - -59.1°
Reaches altitude 10° 00:19:02 10° 229° (SW) 3,139 - -59.2°
Maximum altitude 00:26:02 34° 168° (SSE) 1,881 - -59.2°
Drops below altitude 10° 00:32:55 10° 107° (ESE) 3,077 - -59.2°
Sets 00:35:55 0° 99° (E) 3,967 - -59.1°
